Location: Archemont
(49.1579°N, 1.7598°E)
Time: 09:58:30
(UTC+00:00)

Cosmos 1709 Rocket - Pass Details

Date: 03 February 2023
Orbit: 948 x 1001 km, 82.9° (Epoch: 28 March)

Event Time Altitude Azimuth Distance (km) Brightness Sun altitude
Rises 19:31:33 0° 350° (N) 3,661 7.2 -26.1°
Reaches altitude 10° 19:34:04 10° 350° (N) 2,704 6.5 -26.6°
Maximum altitude 19:40:15 86° 263° (W) 962 3.9 -27.6°
Enters shadow 19:43:06 34° 176° (S) 1,508 4.8 -28.0°
